Skip Page Navigation
NASA JPL Caltech
NASA Logo - Jet Propulsion Laboratory + View the NASA Portal
+ Center for Near-Earth Object Studies
JPL Home Earth Solar System Stars & Galaxies Technology
JPL Solar System Dynamics
BODIES ORBITS EPHEMERIDES TOOLS PHYSICAL DATA DISCOVERY FAQ SITE MAP
JPL Small-Body Database Browser
Search: [ help ]  
(2012 RP6)
Classification: Outer Main-belt Asteroid          SPK-ID: 3608555
Ephemeris | Orbit Diagram | Orbital Elements | Mission Design | Physical Parameters | Close-Approach Data ]

[ show orbit diagram ]
Orbital Elements at Epoch 2459200.5 (2020-Dec-17.0) TDB
Reference: JPL 5 (heliocentric ecliptic J2000)
 Element Value Uncertainty (1-sigma)   Units 
e .5449946518046864 3.2376e-05  
a 3.25546202382231 0.00023023 au
q 1.48125263168589 3.2749e-06 au
i 11.49382957238195 0.00046962 deg
node 193.0401727486452 0.00012846 deg
peri 174.2222834105661 0.00056293 deg
M 143.792666581875 0.055181 deg
tp 2458343.557634551311
(2018-Aug-13.05763455)
0.23795 TDB
period 2145.444958320386
5.87
0.22759
0.0006231
d
yr
n .1677973599853313 1.78e-05 deg/d
Q 5.02967141595873 0.0003557 au
  Orbit Determination Parameters
   # obs. used (total)      62  
   data-arc span      66 days  
   first obs. used      2012-09-11  
   last obs. used      2012-11-16  
   planetary ephem.      DE441  
   SB-pert. ephem.      SB441-N16  
   condition code      5  
   norm. resid. RMS      .56153  
   source      ORB  
   producer      Otto Matic  
   solution date      2021-Apr-15 06:37:27  

Additional Information
 Earth MOID = .479623 au 
 Jupiter MOID = .473572 au 
 T_jup = 2.898 
[ show covariance matrix ]

Ephemeris | Orbit Diagram | Orbital Elements | Mission Design | Physical Parameters | Close-Approach Data ]

Physical Parameter Table
Parameter Symbol Value Units Sigma Reference Notes
absolute magnitude H 19.8   n/a MPO245950  

[ show close-approach data ]
Ephemeris | Orbit Diagram | Orbital Elements | Mission Design | Physical Parameters | Close-Approach Data ]
ABOUT SSD CREDITS/AWARDS PRIVACY/COPYRIGHT GLOSSARY LINKS
FirstGov 2021-May-10 09:13 UT
(server date/time)  
NASA Home Page
Site Manager:   Ryan S. Park
Webmaster  Alan B. Chamberlin